Flag for U.S.A. Weather past 2 weeks in Concord, California, U.S.A.

Now
64 °F

Overcast.


Feels Like: 64 °F
Forecast: 62 / 78 °F
Wind: 10 mph from Southwest

Location: Buchanan Field

Current Time: Aug 3, 2015 at 4:31:55 AM

Latest Report: Aug 3, 2015 at 3:53 AM


Visibility: 10 mi

Pressure: 29.88 "Hg

Humidity: 73%

Dew point: 55 °F

Location of ConcordLocation

Historic Weather in Concord — Graph

°F

Concord temperature yesterday

Maximum temperature yesterday: 84 °F (at 3:53 PM)
Minimum temperature yesterday: 63 °F (at 3:53 AM)
Average temperature yesterday: 70 °F

Past Weeks' High & Low Weather Summary

 TemperatureHumidityPressure
High102 °F (Jul 28, 4:53 PM)81% (Jul 26, 4:53 AM)30.06 "Hg (Jul 26, 4:53 AM)
Low60 °F (Jul 24, 5:53 AM)12% (Jul 28, 1:53 PM)29.74 "Hg (Jul 28, 5:53 PM)
Average74 °F53%29.89 "Hg
* Reported Jul 19 2:53 AM — Aug 3 2:53 AM, Concord, Weather by CustomWeather, © 2015

Note: Actual official high and low records may vary slightly from our data, if they occured in-between our weather recording intervals... More about our weather records

Advertising

Concord weather history for previous 24 hours

 ConditionsComfort  
Time TempWeatherWind HumidityBarometerVisibility
2:53 AM
Mon, Aug 3
64 °FPassing clouds.12 mph73%29.88 "Hg10 mi
1:53 AM64 °FPassing clouds.10 mph75%29.87 "Hg10 mi
12:53 AM64 °FClear.9 mph75%29.87 "Hg10 mi
11:53 PM
Sun, Aug 2
65 °FClear.10 mph70%29.87 "Hg10 mi
10:53 PM66 °FClear.8 mph68%29.86 "Hg10 mi
9:53 PM67 °FClear.6 mph63%29.85 "Hg10 mi
8:53 PM69 °FSunny.12 mph59%29.83 "Hg10 mi
7:53 PM72 °FSunny.12 mph53%29.83 "Hg10 mi
6:53 PM76 °FSunny.10 mph47%29.83 "Hg10 mi
5:53 PM79 °FSunny.15 mph44%29.83 "Hg10 mi
4:53 PM79 °FSunny.16 mph44%29.84 "Hg10 mi
3:53 PM84 °FSunny.13 mph36%29.83 "Hg10 mi
2:53 PM82 °FSunny.14 mph40%29.86 "Hg10 mi
1:53 PM82 °FSunny.14 mph38%29.87 "Hg10 mi
12:53 PM79 °FSunny.14 mph41%29.89 "Hg10 mi
11:53 AM75 °FPassing clouds.10 mph50%29.90 "Hg10 mi
11:00 AM72 °FPassing clouds.14 mph55%29.96 "Hg10 mi
9:53 AM68 °FOvercast.15 mph65%29.93 "Hg10 mi
8:53 AM66 °FOvercast.14 mph70%29.93 "Hg10 mi
7:53 AM65 °FOvercast.13 mph73%29.93 "Hg10 mi
6:53 AM64 °FOvercast.13 mph75%29.90 "Hg10 mi
5:53 AM63 °FOvercast.5 mph78%29.89 "Hg10 mi
4:53 AM63 °FPassing clouds.5 mph78%29.89 "Hg10 mi
Weather by CustomWeather, © 2015

See weather overviewHow to use our weather pages